Regional Weather Roundup
Issued by NWS

Home | Current Version | Previous Version | Text Only | Print | Product List | Glossary Off
Versions: 1 2 3 4 5 6 7 8 9 10 11 12 13 14 15 16 17 18 19 20 21 22 23 24 25 26 27

000
ASUS45 KBOU 180206
RWRCO

WEATHER ROUNDUP FOR COLORADO
NATIONAL WEATHER SERVICE DENVER/BOULDER CO
800 PM MDT THU APR 17 2014

NOTE: "FAIR" INDICATES FEW OR NO CLOUDS BELOW 12000 FEET WITH NO
SIGNIFICANT WEATHER AND/OR OBSTRUCTIONS TO VISIBILITY.

COZ001>005-013-030-031-180300-
...NORTHWEST COLORADO...

CITY           SKY/WX    TMP DP  RH WIND       PRES   REMARKS
CRAIG          CLEAR     50  24  36 W3        30.01S
HAYDEN         CLEAR     54  21  28 NW6       30.05S
MEEKER         CLEAR     53  23  31 S6        30.03R
MOUNT WERNER   MOCLDY    39  14  35 SW16G23   30.20S
STEAMBOAT SPGS CLEAR     52  18  25 CALM      30.04S
WALDEN         CLEAR     43  19  39 SE7       30.08S
$$

COZ006>008-011-180300-
...WEST CENTRAL VALLEYS...

CITY           SKY/WX    TMP DP  RH WIND       PRES   REMARKS
GRAND JUNCTION CLEAR     59  22  24 N5        29.99R
MONTROSE       CLEAR     62  22  21 CALM      30.04R
EAGLE          PTCLDY    55  19  24 SW10      30.07R
RIFLE          CLEAR     56  23  27 W8        30.01R
DELTA          CLEAR     64  24  21 CALM      30.01R
NUCLA            N/A     61  21  21 W3        30.07S
$$

COZ017>023-064>068-180300-
...SOUTHWEST COLORADO...

CITY           SKY/WX    TMP DP  RH WIND       PRES   REMARKS
DURANGO        CLEAR     56  15  20 SW9       30.10R
CORTEZ         CLEAR     57  22  25 S3        30.07S
PAGOSA SPRINGS CLEAR     55  15  20 SW6       30.16R
TELLURIDE      CLEAR     48  19  32 CALM      30.20R
WOLF CREEK PAS CLEAR     32  18  55 SW23G29   30.30R WCI  19
$$

COZ009-010-012-014-032>034-037-058>063-180300-
...CENTRAL COLORADO...

CITY           SKY/WX    TMP DP  RH WIND       PRES   REMARKS
ASPEN          PTCLDY    49  20  31 S3        30.11R
BUENA VISTA    PTCLDY    48  19  31 W6        30.11R
COPPER MTN     MOCLDY    34  14  44 W17       30.24S WCI  23
BERTHOUD PASS  FAIR      27  18  69 W13G21    30.25S WCI  16
COTTONWOOD PAS PTCLDY    45  12  26 W5        30.18R
GUNNISON       CLEAR     52  18  25 W3        30.15R
KREMMLING      CLOUDY    50  16  25 SW6       30.08R
LEADVILLE      MOCLDY    37  17  44 NW10      30.17R
MONARCH PASS   CLEAR     32  16  51 W24G30    30.38R WCI  19
SALIDA         PTCLDY    55  16  21 SW8       30.16R
SUNLIGHT       CLEAR     36  27  69 CALM      30.24R
WILKERSON PASS PTCLDY    34  19  55 SW13G21   30.23S WCI  25
$$

COZ069>075-180300-
...SAN LUIS VALLEY/SANGRE DE CRISTO MOUNTAINS...

CITY           SKY/WX    TMP DP  RH WIND       PRES   REMARKS
ALAMOSA        PTCLDY    52  30  43 S13       30.09R
LA VETA PASS   CLEAR     39  28  65 SW6       30.20S
SAGUACHE       NOT AVBL
$$

COZ035-036-038>040-180300-
...NORTHERN COLORADO FRONT RANGE...

CITY           SKY/WX    TMP DP  RH WIND       PRES   REMARKS
DENVER INTL AP PTCLDY    50  33  52 S10       29.99R
DMNS CITY PARK   N/A     54  36  50 SE2G12    29.98S
AURORA         MOCLDY    54  32  43 S17       30.00R
FRONT RANGE AP NOT AVBL
ERIE MUNI ARPT CLEAR     54  34  46 SE8       29.96S
BOULDER MUN AP CLEAR     59  28  31 CALM      29.97R
CENTENNIAL     PTCLDY    51  33  50 S18       30.00R
BROOMFIELD     PTCLDY    57  30  35 SE7       29.99S
FORT COLLINS   CLEAR     54  27  35 E7        29.99R
LONGMONT       CLEAR     58  27  30 E3        29.99R
$$

COZ041-046-047-076>085-087-088-180300-
...PIKES PEAK/PALMER DIVIDE AND SOUTHERN FOOTHILLS...

CITY           SKY/WX    TMP DP  RH WIND       PRES   REMARKS
COLO. SPRINGS  MOCLDY    49  31  49 S15       30.09R
A. F. ACADEMY  CLEAR     48  29  49 S12       30.08R
ELLICOTT       NOT AVBL
FALCON         CLEAR     44  30  57 S10       30.11R
FORT CARSON    PTCLDY    48  34  57 S8        30.07R
LIMON          CLEAR     46  32  58 S14       30.08R
MONUMENT HILL  CLEAR     43  30  61 S20       30.05S
TRINIDAD       PTCLDY    48  36  63 SW10      30.10S
$$

COZ042>045-048>051-090-091-180300-
...NORTHEAST COLORADO...

CITY           SKY/WX    TMP DP  RH WIND       PRES   REMARKS
GREELEY ARPT   CLEAR     52  27  37 E7        29.97S
AKRON          CLEAR     51  35  54 S20       30.02R
BURLINGTON     CLEAR     45  37  73 S21       30.11R
WRAY           PTCLDY    51  38  61 S14G21    30.07R
STERLING       CLEAR     57  36  44 S12       29.98R
HOLYOKE        PTCLDY    54  41  62 S18       30.04R
FORT MORGAN    CLEAR     55  31  40 S18       30.00R
$$

COZ086-089-092>099-180300-
...SOUTHEAST COLORADO...

CITY           SKY/WX    TMP DP  RH WIND       PRES   REMARKS
PUEBLO         PTCLDY    57  33  40 SE9       30.04R
LA JUNTA       PTCLDY    53  36  52 SE20      30.06R
LAMAR          PTCLDY    49  37  63 S17       30.11R
SPRINGFIELD      N/A     43  35  73 S12       30.16S
$$



USA.gov is the U.S. government's official web portal to all federal, state and local government web resources and services.